GFSGBSN_250_rhum_294.txt.gz
RH
28 30 41 55 54 54 55 52 66 57 86 93 66 44 44 39 44 38 32 36 31 27 21 16 15 16 16 18 19 20 27 30 40 46 43 40 47 49 48 71 73 59 69 64 50 41 50
48 54 54 53 53 58 59 60 68 89 74 50 52 48 39 37 33 24 25 25 24 23 18 16 16 16 16 18 20 22 23 27 30 35 42 48 57 60 53 53 54 65 61 59 49 49 37
50 52 49 54 66 73 78 95 80 68 46 46 48 44 36 33 24 27 22 24 26 19 18 18 17 15 16 18 17 16 18 20 23 25 27 42 44 51 58 59 54 48 48 53 58 49 47
52 51 60 68 63 92 100 90 65 63 62 53 42 32 26 25 25 24 27 31 27 21 20 18 18 17 15 16 14 14 16 19 21 24 25 27 37 53 55 68 68 67 59 63 65 53 48
61 70 68 75 100 100 98 90 78 68 49 22 20 21 24 24 21 23 29 31 27 26 23 20 20 21 22 20 17 15 16 17 18 19 21 22 27 37 49 64 65 85 82 72 76 79 51
67 73 91 87 94 98 98 83 60 27 19 18 20 26 26 21 21 20 23 26 27 29 25 22 25 26 27 21 20 18 22 24 26 26 26 27 26 28 34 39 52 51 58 72 70 74 51
77 92 93 100 100 90 74 60 27 17 17 17 18 24 22 22 21 21 27 30 34 38 33 25 30 30 30 26 22 23 24 31 34 34 36 37 40 37 33 32 28 27 33 45 59 56 42
90 99 100 100 98 60 38 26 21 20 18 18 19 22 23 23 25 21 31 32 37 39 32 33 35 33 33 30 27 28 33 36 42 47 46 46 42 38 38 35 33 30 27 25 24 25 22
99 100 92 69 57 52 37 28 25 24 23 22 19 21 23 26 25 35 35 38 39 41 38 36 43 39 36 28 25 29 33 48 53 52 46 44 39 34 34 33 30 28 25 24 21 22 20
100 80 65 61 56 46 33 27 28 28 26 24 23 20 21 29 33 38 45 48 50 41 38 39 41 41 31 28 28 28 44 52 53 58 54 45 39 37 35 34 31 31 30 28 24 23 23
88 72 59 50 37 35 29 23 23 28 25 21 23 24 27 42 44 45 51 50 38 42 41 42 44 41 33 32 28 34 44 65 70 58 50 49 44 39 35 33 34 33 31 29 30 29 23
75 64 62 50 45 33 27 24 32 33 27 27 25 25 36 50 59 49 53 45 45 48 53 52 52 43 34 30 28 29 32 36 40 43 45 40 36 34 32 31 30 30 28 30 34 34 25
78 85 64 52 43 33 28 25 47 40 39 30 22 38 56 71 53 51 47 47 47 47 53 60 52 42 36 29 29 27 32 33 34 36 36 33 31 32 34 38 37 35 31 27 23 26 23
84 92 58 48 44 41 50 45 50 52 37 26 29 29 56 71 63 63 57 50 53 55 67 62 54 40 33 29 28 30 32 32 32 34 32 30 29 25 21 21 20 20 17 16 12 13 12
67 65 64 57 44 63 86 82 64 60 42 30 37 31 52 57 65 55 45 48 56 82 75 71 48 35 29 25 25 27 30 31 32 31 30 24 20 19 14 12 11 10 10 9 9 9 8
67 59 62 57 66 78 84 69 52 42 36 40 33 50 80 74 55 59 54 63 75 71 92 83 46 38 31 25 24 26 27 26 25 24 20 15 13 14 11 9 9 8 8 8 7 7 6
61 56 66 72 81 68 52 51 46 46 62 39 59 81 64 56 59 51 55 64 74 88 50 36 30 28 26 29 29 28 25 21 15 12 11 10 10 10 9 8 9 8 7 8 8 8 6
76 65 72 73 72 62 46 53 84 73 52 56 98 82 70 70 68 61 58 65 65 50 42 32 25 25 31 32 29 26 22 14 11 10 9 9 8 8 10 12 10 9 10 9 8 9 8
80 62 49 52 47 56 100 95 70 52 54 79 87 77 74 69 64 65 61 60 52 49 36 28 26 30 33 31 26 20 12 10 9 9 8 9 10 11 13 13 10 11 12 9 8 7 8
77 64 61 60 64 86 92 83 60 61 62 62 67 89 65 56 53 58 67 58 57 43 32 29 24 27 27 22 14 10 9 8 9 11 11 10 11 10 11 10 7 9 10 8 6 5 6
63 56 75 70 100 56 46 41 67 64 65 99 91 75 54 56 59 59 38 32 35 29 27 25 23 22 16 12 10 9 8 10 11 12 11 10 10 8 9 8 7 8 7 7 6 6 5
68 94 76 74 52 48 46 62 62 82 100 87 69 62 45 54 54 37 35 36 28 29 29 24 21 15 11 9 8 10 12 12 11 8 8 8 9 6 8 7 7 7 6 6 6 6 6
80 93 82 69 53 68 63 77 100 93 82 72 52 45 58 58 40 34 31 27 30 30 25 25 15 9 8 9 11 11 11 10 9 8 8 7 6 6 8 6 7 8 6 6 6 6 6
100 99 76 58 44 52 85 99 90 77 63 53 52 60 43 39 35 30 28 27 25 26 24 16 9 8 10 12 10 9 8 7 7 7 7 7 6 6 8 6 7 6 6 6 6 6 6
100 99 50 41 63 92 85 94 75 60 56 50 52 53 45 42 39 30 25 24 26 21 14 9 8 10 10 10 7 6 6 6 6 7 6 7 7 7 7 6 6 8 6 7 7 7 8
90 68 49 56 70 88 99 70 56 52 56 65 59 42 33 28 24 22 22 25 21 13 9 9 10 9 7 6 6 6 6 5 6 7 6 7 7 6 7 7 8 9 8 10 10 10 10
60 51 55 82 97 82 69 55 53 54 73 59 37 31 27 26 25 24 24 20 12 8 9 9 7 6 6 6 5 6 6 7 7 7 8 8 8 9 8 9 11 10 10 12 12 11 11
54 76 97 85 90 71 47 52 58 76 58 39 32 29 24 21 23 22 18 10 8 9 8 6 6 5 5 5 6 7 8 7 8 9 8 9 10 10 10 11 12 10 11 12 12 12 12
87 100 98 89 56 43 56 75 70 51 41 34 28 25 24 26 23 16 10 9 9 8 6 5 5 6 6 7 7 7 8 8 9 8 9 9 10 11 11 12 12 12 11 12 12 12 13

GFSGBSN_250_rhum_297.txt.gz
RH
88 78 39 28 28 31 37 49 50 53 52 60 62 66 47 35 38 38 40 32 29 22 23 23 18 18 18 17 17 16 18 17 15 14 13 15 19 21 24 29 39 42 44 38 39 40 42
84 45 30 31 39 47 47 54 60 61 57 54 50 44 37 37 39 38 26 23 23 25 23 21 19 18 20 20 19 18 20 18 19 16 16 15 16 19 23 27 30 40 48 62 63 73 54
52 33 34 38 53 55 55 59 62 64 59 54 42 46 44 38 24 18 20 23 23 22 20 19 23 24 23 25 21 20 22 20 20 20 18 17 16 17 18 22 26 26 37 49 72 78 77
37 43 52 54 50 52 71 77 74 72 58 47 62 55 34 20 16 18 24 24 23 20 17 19 23 22 21 25 23 24 23 20 20 19 22 21 19 16 17 18 20 24 24 30 57 47 54
52 54 52 51 59 72 76 77 72 59 61 75 70 39 18 16 16 18 25 25 22 18 16 17 22 27 33 27 31 29 26 26 25 24 23 20 21 20 18 17 19 22 21 28 42 45 49
56 51 51 68 74 78 72 72 64 63 75 63 51 21 20 19 19 18 22 22 20 17 19 22 28 32 28 26 29 34 32 35 32 33 30 26 25 24 22 20 22 23 26 30 26 30 37
42 57 75 74 76 80 93 91 82 84 70 50 28 24 22 24 20 21 22 20 18 19 21 21 26 29 31 34 39 37 41 41 37 32 31 27 27 28 25 26 24 22 21 21 31 32 29
61 73 71 78 81 96 100 96 93 70 50 34 29 26 26 25 21 19 20 20 19 21 23 31 38 35 38 40 37 44 49 47 39 38 30 28 27 29 30 29 28 28 25 25 24 26 23
72 66 76 84 97 100 94 84 66 52 49 38 31 28 26 22 20 20 20 24 23 26 26 30 52 48 38 37 51 61 58 54 53 43 37 29 28 33 30 34 32 30 26 26 25 25 23
72 92 88 88 99 95 81 67 60 52 37 33 28 24 23 22 22 21 24 26 27 30 30 32 47 38 40 46 49 46 57 51 42 40 36 29 30 31 28 28 31 33 34 35 34 33 28
96 89 85 99 91 79 75 63 58 44 42 36 32 28 22 23 23 24 30 32 30 31 36 44 39 39 46 40 42 48 46 41 45 45 33 31 30 27 32 32 32 33 33 34 36 32 27
83 81 89 92 96 88 71 63 56 48 39 39 34 32 30 29 28 28 34 40 42 60 50 38 41 39 42 42 44 40 45 46 48 42 33 31 27 26 29 30 31 32 32 31 27 26 24
100 100 100 100 99 78 67 55 54 46 42 39 40 44 41 35 32 38 43 53 67 55 40 42 46 47 44 39 39 35 32 30 36 38 30 26 28 27 25 24 24 21 19 17 15 14 14
78 80 79 96 83 67 58 51 52 51 49 44 50 52 42 34 35 61 61 50 56 48 54 68 60 48 40 42 43 40 34 30 33 31 28 32 29 26 22 15 14 12 11 12 10 10 10
72 88 91 99 97 90 70 56 51 56 48 49 43 49 38 33 47 53 53 58 60 79 80 63 49 42 45 47 44 36 31 29 28 28 31 27 24 18 14 11 10 9 9 8 8 8 7
91 75 76 80 71 69 64 60 63 54 42 46 70 58 40 66 62 61 52 68 79 82 68 51 49 45 45 43 41 34 33 27 25 29 27 23 15 12 10 8 8 8 8 9 9 8 7
91 87 84 87 82 75 58 60 67 56 49 53 46 43 48 59 53 53 73 85 88 80 61 50 46 52 56 48 37 29 27 24 24 23 21 14 9 10 10 10 10 9 9 10 10 9 8
100 98 99 87 75 58 59 61 57 60 47 41 42 48 50 45 57 70 84 82 79 58 48 48 51 55 46 36 30 28 24 27 24 18 12 9 9 12 12 11 10 9 9 10 9 8 8
87 82 79 76 78 69 63 71 51 48 50 52 55 69 53 66 74 93 89 78 64 50 45 41 49 47 38 35 31 26 27 25 19 10 9 10 10 10 10 10 9 8 7 7 7 6 7
98 85 76 62 77 60 55 56 55 59 48 59 77 54 68 71 78 84 82 66 51 47 41 45 45 42 32 24 24 24 24 17 10 9 10 8 9 8 7 8 7 6 7 7 6 6 5
86 72 69 69 65 63 66 61 64 66 66 74 87 63 59 67 81 76 56 50 45 46 44 47 38 31 26 21 22 22 15 10 9 10 8 6 6 6 6 6 5 6 7 8 5 4 5
80 62 63 64 55 69 74 62 79 60 78 93 86 60 68 89 87 60 51 48 41 40 45 40 34 28 21 23 21 14 10 10 9 8 7 5 5 5 6 6 5 6 8 5 5 6 6
63 62 50 54 66 78 75 95 74 79 86 66 65 79 80 81 60 48 45 38 44 44 41 32 26 21 23 20 11 9 10 10 8 7 7 6 5 5 6 6 5 5 7 5 6 6 6
61 61 82 76 92 97 89 65 76 82 80 71 77 76 82 70 54 44 36 38 46 50 35 30 25 23 19 11 10 9 8 6 7 7 7 6 6 6 6 6 6 6 6 5 5 6 6
75 92 77 83 82 91 61 78 99 91 79 78 84 75 71 59 42 36 41 31 43 35 29 23 22 17 10 10 10 7 6 6 7 8 8 7 7 6 6 7 8 7 7 7 7 7 7
87 87 96 100 100 55 65 100 90 84 80 93 83 73 53 42 38 35 32 44 34 24 22 20 17 10 10 10 7 6 6 6 7 7 8 7 7 8 7 8 10 9 9 9 10 9 9
88 100 100 96 62 65 91 87 90 69 87 87 62 51 41 34 32 35 41 37 31 21 19 12 9 10 8 6 6 8 7 6 7 7 8 8 9 9 9 9 11 11 10 10 11 11 10
100 100 86 54 66 99 94 88 95 91 82 65 48 48 37 31 31 37 38 28 20 20 11 10 10 8 6 6 7 6 6 7 7 7 8 9 9 8 9 10 11 10 10 10 12 12 12
74 72 82 100 89 93 100 96 94 90 64 45 52 39 34 34 35 33 25 21 20 11 10 9 7 6 7 6 6 6 7 8 8 8 8 8 9 10 9 9 10 10 10 10 10 12 12

GFSGBSN_250_rhum_300.txt.gz
RH
100 100 100 100 83 62 37 29 29 28 32 45 51 48 52 46 39 33 31 33 24 16 17 21 24 23 24 22 19 17 18 17 18 19 20 20 18 18 18 18 18 16 17 16 18 18 33
100 100 100 93 74 38 28 30 33 42 46 46 49 48 52 50 36 34 38 26 15 14 15 18 24 22 19 19 17 17 19 19 18 22 20 19 20 18 18 18 17 18 19 18 19 24 20
100 100 98 92 50 31 30 35 46 51 54 48 46 50 48 41 37 45 27 18 18 16 16 21 24 24 21 19 19 18 19 18 24 22 26 23 22 21 22 16 15 16 17 23 22 20 20
100 100 96 63 36 33 38 55 57 57 54 58 58 50 49 45 57 47 21 21 19 17 18 21 26 24 20 19 17 18 20 21 26 25 27 24 23 23 21 21 22 20 21 20 20 22 20
100 100 83 43 37 48 57 53 54 66 68 63 57 50 45 69 54 39 24 22 21 19 18 20 22 21 19 19 18 18 19 24 25 29 27 30 36 36 26 24 19 22 22 21 23 25 24
92 93 49 55 61 60 53 62 67 64 68 66 54 51 64 69 51 27 24 26 27 23 19 19 20 20 21 20 24 23 23 28 32 30 31 35 37 33 32 25 22 18 16 19 22 24 25
94 53 59 62 59 53 64 69 65 66 69 74 75 68 78 53 39 33 30 29 28 24 21 19 19 23 24 26 27 33 36 41 34 39 41 37 32 33 36 33 28 23 22 21 24 24 27
64 50 56 57 49 63 76 80 83 85 81 83 81 80 54 50 43 37 34 27 24 25 25 23 25 29 33 36 36 42 41 35 38 44 42 34 31 35 39 37 34 31 27 24 24 26 26
55 50 50 45 49 80 72 83 93 94 99 95 82 68 57 46 38 36 34 33 30 30 29 30 31 38 45 44 49 50 47 43 49 46 37 34 36 42 43 42 40 35 32 31 29 29 27
50 47 46 48 71 82 74 84 82 84 100 87 74 64 59 50 42 38 36 34 31 31 30 31 34 43 45 48 60 61 50 50 45 41 39 38 43 46 47 43 35 32 32 29 28 28 26
59 58 61 66 70 84 93 80 95 100 95 85 79 63 57 53 46 39 38 27 31 28 29 28 36 44 47 52 48 41 54 49 50 44 37 40 41 44 45 40 39 38 35 32 30 26 23
79 74 79 90 100 100 94 73 90 99 94 87 62 59 60 49 45 45 32 31 30 32 36 36 40 43 42 50 45 50 55 57 47 41 40 41 42 42 36 33 29 28 30 29 25 25 19
90 92 86 99 99 99 100 100 100 100 98 84 67 70 62 51 51 49 36 28 33 37 38 45 44 41 46 48 49 56 50 51 48 40 39 38 40 40 32 25 24 26 26 24 19 16 13
74 83 89 96 84 79 84 77 79 67 83 78 81 73 53 55 50 42 35 33 35 40 51 53 46 50 53 62 59 57 59 53 38 40 40 37 43 39 30 26 26 25 21 16 10 8 8
100 99 93 68 65 66 62 65 76 86 91 87 73 61 58 59 48 44 37 34 36 47 59 58 53 58 64 68 67 61 57 43 37 38 38 38 39 31 26 25 21 15 10 9 8 8 7
100 99 100 100 98 97 95 92 80 86 75 81 77 68 62 61 45 42 41 36 53 62 69 69 78 70 82 87 70 55 46 38 34 33 38 38 30 23 22 18 11 9 8 8 8 7 7
100 100 100 100 100 100 99 88 92 84 62 54 66 68 57 46 46 46 44 39 59 72 67 77 78 82 99 80 66 58 43 35 33 36 39 36 22 21 14 10 9 8 7 7 6 6 5
96 88 93 100 99 100 89 76 80 65 66 74 80 71 55 53 46 38 34 50 61 71 77 82 84 96 88 73 67 46 36 31 33 38 28 23 18 12 10 9 8 6 5 5 4 4 4
66 80 96 83 81 83 77 80 85 85 77 64 58 57 57 42 40 35 51 61 74 74 75 88 99 98 80 58 45 38 34 32 35 30 21 18 12 10 9 8 6 5 5 5 4 4 5
80 66 85 80 78 71 68 67 64 73 64 64 62 60 52 50 45 54 62 80 83 92 92 97 87 73 54 46 42 39 32 34 32 23 20 11 9 8 6 5 5 5 6 5 5 5 4
100 99 80 80 87 84 68 69 59 58 66 67 61 50 54 56 52 51 53 66 90 94 92 93 72 57 54 40 44 34 34 31 21 18 12 9 6 5 6 6 6 6 8 7 5 5 4
100 100 100 98 80 69 61 58 62 76 70 67 55 48 61 52 61 65 84 95 97 96 92 86 66 58 38 41 35 33 29 20 17 12 10 7 6 5 5 7 7 8 10 7 7 6 6
100 100 99 86 84 79 66 77 85 70 63 43 51 55 58 60 49 76 100 94 93 98 90 71 58 43 42 37 34 27 20 15 11 9 7 6 6 6 6 6 6 9 7 7 7 7 7
100 100 98 100 95 81 95 86 66 67 58 60 46 52 59 54 84 100 91 91 97 89 67 52 41 41 35 30 22 20 16 10 8 6 7 8 8 7 8 8 8 10 8 8 8 7 7
100 100 90 71 83 80 69 68 72 63 52 42 42 63 68 82 96 92 89 91 83 70 48 42 36 34 25 20 17 13 11 7 6 6 7 8 8 8 8 7 9 9 9 9 8 8 7
100 98 80 66 66 63 64 70 57 40 42 50 86 80 75 77 72 83 92 78 64 40 41 36 33 29 20 16 11 9 7 6 7 8 8 8 8 8 7 8 9 8 9 9 10 9 8
86 73 66 73 79 80 58 47 44 57 87 83 68 82 62 73 94 95 74 53 40 38 36 32 26 20 14 10 8 6 7 7 7 7 7 8 8 8 7 8 9 9 9 10 10 9 9
94 86 84 84 74 64 45 48 79 90 75 76 75 64 90 90 89 80 46 43 37 36 29 20 18 12 9 7 6 7 7 7 8 8 8 8 8 8 8 8 8 8 10 10 10 10 11
91 100 100 85 78 72 82 86 80 71 76 57 82 94 92 87 79 46 40 36 35 30 23 17 11 9 6 6 7 7 7 8 8 8 8 8 7 7 6 6 6 7 8 9 10 10 10

GFSGBSN_250_rhum_306.txt.gz
RH
89 94 99 98 98 100 100 100 99 100 97 86 72 62 55 38 30 29 30 32 40 43 47 51 39 38 41 28 24 22 24 20 19 22 22 23 22 22 20 18 18 17 16 15 15 14 14
100 99 97 100 100 100 100 100 100 89 86 72 69 61 41 32 26 29 38 50 41 46 54 46 41 49 50 29 28 29 28 26 23 18 18 20 21 20 19 18 18 18 16 17 17 16 16
100 99 100 93 100 100 100 100 100 100 94 76 64 50 34 30 41 44 47 54 44 54 53 47 51 62 43 32 34 34 32 32 30 27 21 20 23 25 24 23 21 19 20 19 18 15 14
100 100 100 100 100 100 100 100 100 100 95 76 56 41 36 44 49 52 55 51 64 58 50 51 59 67 48 39 38 36 38 39 36 32 31 27 26 26 24 23 22 23 21 21 23 24 19
98 100 100 100 100 100 100 100 100 100 96 72 50 51 47 58 61 66 66 73 69 56 59 74 82 61 53 45 44 44 41 41 33 36 33 31 29 29 29 24 22 24 24 25 23 27 29
79 66 78 98 100 100 100 100 100 100 92 66 53 62 61 59 58 71 85 86 73 76 83 94 92 74 62 54 54 50 47 37 34 34 34 32 31 33 34 34 30 27 23 24 29 42 41
100 100 82 61 84 100 100 100 100 100 90 57 62 68 62 58 63 72 79 81 82 89 99 100 98 73 70 67 59 50 47 46 42 38 35 34 34 35 38 39 33 28 23 22 29 38 43
100 100 100 100 93 100 100 100 100 99 78 58 70 69 61 62 74 85 88 94 100 100 100 96 86 81 67 61 55 53 50 50 46 47 37 33 34 36 38 38 36 32 31 32 32 35 36
99 100 100 100 100 100 100 100 100 99 72 61 74 67 64 68 76 82 98 100 100 95 92 99 96 90 76 67 60 55 54 50 41 37 36 32 32 37 42 45 43 42 42 51 46 49 47
100 100 99 100 100 100 100 100 100 100 75 68 72 66 58 62 80 92 100 100 98 82 91 100 98 98 89 62 59 58 57 51 47 40 36 34 34 35 31 32 45 52 64 61 50 54 40
100 100 100 100 99 100 100 100 100 97 74 78 77 68 65 64 86 100 100 96 86 98 84 83 86 74 57 54 58 54 52 48 47 39 36 36 35 34 28 28 40 45 47 46 46 32 32
83 98 100 100 95 100 100 100 100 97 81 74 70 74 83 92 100 100 100 100 97 91 90 86 68 50 46 54 54 55 52 45 38 39 32 34 32 32 28 32 37 41 37 29 28 31 31
100 90 87 100 100 100 98 99 100 99 95 90 87 95 100 100 100 100 100 95 100 99 82 68 61 66 68 60 55 54 47 50 50 39 33 27 27 27 31 32 37 33 28 36 32 41 43
93 100 100 93 95 100 100 100 100 100 100 100 100 100 100 100 100 100 99 96 89 82 69 61 61 57 56 54 44 43 43 51 49 39 27 24 27 32 32 40 36 27 44 47 53 39 36
100 82 89 99 99 100 100 100 100 100 100 100 98 98 100 100 100 100 98 89 81 79 73 74 62 54 56 49 46 49 57 50 47 29 26 29 30 29 39 38 35 35 42 50 46 37 28
100 100 90 81 92 99 100 95 94 89 87 85 87 92 93 96 98 95 99 99 78 66 68 69 56 54 53 50 47 50 45 36 27 28 36 36 31 34 32 32 35 36 43 40 35 31 24
100 100 100 88 86 90 82 91 91 83 70 73 77 98 100 100 96 93 87 75 75 73 72 57 58 61 60 49 56 48 42 27 24 26 27 30 40 34 33 31 37 40 34 33 30 19 9
100 100 100 100 100 100 91 62 55 80 75 59 63 69 76 83 82 75 68 64 60 60 61 63 60 59 66 55 49 41 40 26 33 32 38 69 54 39 30 36 42 31 31 30 18 9 6
100 100 100 100 100 100 94 66 68 58 63 74 74 72 60 52 54 57 57 58 63 65 66 64 51 57 64 59 43 35 26 30 38 42 84 78 44 33 41 39 32 28 28 16 9 6 6
100 100 100 100 100 100 100 91 61 55 56 48 56 67 67 56 49 49 61 59 61 63 70 63 51 58 50 44 41 26 23 35 40 88 85 48 33 47 36 31 27 26 14 9 6 6 5
100 100 100 100 100 100 100 95 63 43 51 54 50 45 54 54 56 57 55 58 72 60 50 53 52 51 46 38 32 24 35 44 72 68 43 51 48 35 29 27 22 13 8 7 6 6 6
100 100 100 100 100 100 100 100 100 67 54 60 57 76 75 67 60 48 51 65 70 54 49 50 40 39 36 32 25 37 63 69 52 46 56 50 35 30 27 20 13 7 7 7 6 6 7
100 100 100 100 100 100 100 98 97 94 86 97 98 83 60 54 60 63 64 61 52 53 45 45 42 32 28 34 41 82 64 52 52 55 47 37 30 29 17 12 7 6 8 8 7 6 6
100 100 100 100 100 100 100 100 100 100 100 98 98 82 66 68 66 54 47 58 59 46 46 41 35 41 48 57 66 57 52 64 61 48 38 33 31 18 11 7 6 7 8 8 7 7 7
100 100 100 100 100 100 100 100 100 100 100 100 100 82 75 79 65 62 61 55 50 53 54 56 69 80 67 52 47 64 62 56 47 36 37 31 16 11 7 6 7 8 7 7 7 7 7
100 100 100 100 100 100 100 100 100 100 100 100 86 74 79 75 76 77 63 57 55 64 77 93 81 47 50 49 80 61 46 38 36 37 27 16 10 7 7 7 7 8 7 7 7 7 6
100 100 100 100 100 100 100 100 100 100 100 100 90 88 84 77 76 70 69 63 65 78 63 52 53 54 72 71 52 43 40 41 34 20 14 9 7 8 8 7 8 8 7 6 6 5 5
100 100 100 100 100 100 100 100 100 100 100 96 92 93 86 74 70 66 57 58 62 56 59 58 52 66 57 57 44 45 40 31 18 12 8 7 8 8 8 7 7 7 6 6 6 6 6
100 100 100 100 100 100 100 100 92 90 96 89 96 94 88 87 68 57 66 73 61 57 54 58 56 52 54 48 47 32 28 14 10 8 8 8 7 8 7 7 6 6 6 6 6 6 6